Hourly Data Report for June 19, 2012

All times are specified in Local Standard Time (LST). Add 1 hour to adjust for Daylight Saving Time where and when it is observed.

ABBOTSFORD A
BRITISH COLUMBIA

49°01'31.000" N
122°21'36.000" W
59.10 m
1100031
71108
YXX

Related Data

No related data is available for this station

Download Data

Hourly Data (June 2012)
Hourly Data Report for June 19, 2012
Temp Definition
°C
Dew Point Temp Definition
°C
Rel Hum Definition
%
Wind Dir Definition
10's deg

Wind Spd Definition
km/h
Visibility Definition
km
Stn Press Definition
kPa
Hmdx Definition


Wind Chill Definition


Weather Definition


TIME
00:00 10.6 7.3 80   0 10.0 100.97     LegendNANA
01:00 10.8 7.7 81 18 6 10.0 100.98     Mostly Cloudy
02:00 10.8 7.3 79 16 6 10.0 100.99     LegendNANA
03:00 10.8 7.2 78   0 10.0 101.01     LegendNANA
04:00 10.5 7.4 81 17 4 10.0 101.04     Cloudy
05:00 10.6 7.7 82   0 10.0 101.07     LegendNANA
06:00 10.7 8.3 85 20 6 10.0 101.11     LegendNANA
07:00 11.0 8.4 84 19 5 10.0 101.16     Cloudy
08:00 11.5 8.7 83 14 8 10.0 101.21     LegendNANA
09:00 10.7 9.6 93 15 8 9.7 101.25     Rain Showers
10:00 12.7 10.6 87 34 5 10.0 101.26     Mostly Cloudy
11:00 13.1 9.4 78 28 8 10.0 101.29     LegendNANA
12:00 14.2 9.3 72   0 10.0 101.33     LegendNANA
13:00 14.1 8.8 70 21 10 10.0 101.38     Mostly Cloudy
14:00 14.2 8.4 68 21 4 10.0 101.38     LegendNANA
15:00 15.9 9.2 64 21 7 10.0 101.36     LegendNANA
16:00 17.4 9.4 59 24 12 10.0 101.37     Mainly Clear
17:00 16.4 9.2 62 24 5 10.0 101.36     LegendNANA
18:00 16.0 8.6 61 26 9 10.0 101.39     LegendNANA
19:00 16.2 9.5 64 28 9 10.0 101.41     Mostly Cloudy
20:00 13.7 9.0 73 26 6 10.0 101.43     LegendNANA
21:00 13.9 10.0 77   0 10.0 101.45     LegendNANA
22:00 10.8 9.1 89   0 10.0 101.46     Clear
23:00 9.8 8.4 91 13 4 10.0 101.49     LegendNANA

Notes on Data Quality.

Legend

  • E = Estimated
  • M = Missing
  • NA = Not Available
Date modified: